| time (UTC) | temp C | wind direction | speed KPH | gust KPH | rain 1hr cm | rain 24hr cm | rain mn cm | humidity % | barometer mb |
| 20260507140524 | 8 | 236 | 6.4 | 11.3 | 0.00 | 0.00 | 0.00 | 57 | 1012.0 |
| 20260507140239 | 8 | 196 | 6.4 | 12.9 | 0.00 | 0.00 | 0.00 | 59 | 1012.2 |
| 20260507135508 | 8 | 228 | 4.8 | 12.9 | 0.00 | 0.00 | 0.00 | 59 | 1012.2 |
| 20260507134959 | 8 | 184 | 4.8 | 11.3 | 0.00 | 0.00 | 0.00 | 59 | 1012.2 |
| 20260507134459 | 8 | 244 | 6.4 | 14.5 | 0.00 | 0.00 | 0.00 | 58 | 1012.3 |
| 20260507134000 | 8 | 230 | 6.4 | 14.5 | 0.00 | 0.00 | 0.00 | 60 | 1012.3 |
| 20260507133459 | 8 | 223 | 4.8 | 11.3 | 0.00 | 0.00 | 0.00 | 60 | 1012.3 |
| 20260507132959 | 7 | 269 | 6.4 | 11.3 | 0.00 | 0.00 | 0.00 | 61 | 1012.3 |
| 20260507132500 | 7 | 251 | 6.4 | 12.9 | 0.00 | 0.00 | 0.00 | 61 | 1012.3 |
| 20260507132000 | 7 | 254 | 6.4 | 12.9 | 0.00 | 0.00 | 0.00 | 61 | 1012.3 |
| 20260507131500 | 7 | 206 | 4.8 | 11.3 | 0.00 | 0.00 | 0.00 | 63 | 1012.2 |
| 20260507131044 | 6 | 248 | 4.8 | 9.7 | 0.00 | 0.00 | 0.00 | 65 | 1012.2 |
| 20260507125942 | 6 | 209 | 3.2 | 9.7 | 0.00 | 0.00 | 0.00 | 65 | 1011.9 |
| 20260507125429 | 6 | 219 | 3.2 | 6.4 | 0.00 | 0.00 | 0.00 | 67 | 1011.9 |
| 20260507124923 | 5 | 236 | 3.2 | 6.4 | 0.00 | 0.00 | 0.00 | 67 | 1011.9 |
| 20260507124418 | 5 | 237 | 3.2 | 6.4 | 0.00 | 0.00 | 0.00 | 69 | 1011.9 |
| 20260507123906 | 5 | 225 | 3.2 | 6.4 | 0.00 | 0.00 | 0.00 | 70 | 1011.9 |
| 20260507123406 | 5 | 223 | 3.2 | 6.4 | 0.00 | 0.00 | 0.00 | 70 | 1011.9 |
| 20260507122901 | 5 | 217 | 3.2 | 6.4 | 0.00 | 0.00 | 0.00 | 71 | 1011.9 |
| 20260507122354 | 4 | 221 | 1.6 | 6.4 | 0.00 | 0.00 | 0.00 | 70 | 1011.9 |
| 20260507121848 | 4 | 125 | 0.0 | 3.2 | 0.00 | 0.00 | 0.00 | 72 | 1011.9 |
| 20260507121342 | 3 | 125 | 1.6 | 3.2 | 0.00 | 0.00 | 0.00 | 72 | 1011.9 |
| 20260507120835 | 3 | 125 | 1.6 | 3.2 | 0.00 | 0.00 | 0.00 | 72 | 1011.9 |
| 20260507120325 | 3 | 125 | 1.6 | 3.2 | 0.00 | 0.00 | 0.00 | 73 | 1011.9 |
| 20260507115814 | 3 | 125 | 0.0 | 3.2 | 0.00 | 0.00 | 0.00 | 73 | 1011.9 |
| 20260507115313 | 3 | 122 | 0.0 | 3.2 | 0.00 | 0.00 | 0.00 | 74 | 1011.9 |
| 20260507114808 | 3 | 122 | 0.0 | 0.0 | 0.00 | 0.00 | 0.00 | 74 | 1011.8 |
| 20260507114524 | 3 | 122 | 0.0 | 0.0 | 0.00 | 0.00 | 0.00 | 74 | 1011.8 |
| 20260507113756 | 2 | 235 | 0.0 | 0.0 | 0.00 | 0.00 | 0.00 | 75 | 1011.8 |
| 20260507113245 | 2 | 235 | 0.0 | 3.2 | 0.00 | 0.00 | 0.00 | 76 | 1011.7 |
| 20260507112744 | 2 | 235 | 0.0 | 3.2 | 0.00 | 0.00 | 0.00 | 76 | 1011.7 |
| 20260507112458 | 2 | 235 | 1.6 | 3.2 | 0.00 | 0.00 | 0.00 | 76 | 1011.7 |
| 20260507111732 | 2 | 235 | 1.6 | 3.2 | 0.00 | 0.00 | 0.00 | 77 | 1011.7 |
| 20260507111225 | 2 | 235 | 1.6 | 4.8 | 0.00 | 0.00 | 0.00 | 77 | 1011.7 |
| 20260507110714 | 2 | 235 | 3.2 | 4.8 | 0.00 | 0.00 | 0.00 | 77 | 1011.7 |
| 20260507110213 | 2 | 235 | 3.2 | 4.8 | 0.00 | 0.00 | 0.00 | 77 | 1011.6 |
| 20260507105708 | 2 | 235 | 1.6 | 4.8 | 0.00 | 0.00 | 0.00 | 77 | 1011.6 |
| 20260507105209 | 2 | 235 | 1.6 | 3.2 | 0.00 | 0.00 | 0.00 | 77 | 1011.6 |
| 20260507104709 | 2 | 235 | 1.6 | 4.8 | 0.00 | 0.00 | 0.00 | 77 | 1011.8 |
| 20260507104211 | 2 | 235 | 3.2 | 4.8 | 0.00 | 0.00 | 0.00 | 77 | 1011.8 |
| 20260507103926 | 2 | 235 | 3.2 | 4.8 | 0.00 | 0.00 | 0.00 | 77 | 1011.8 |
| 20260507103207 | 2 | 235 | 3.2 | 4.8 | 0.00 | 0.00 | 0.00 | 77 | 1011.8 |
| 20260507102706 | 2 | 235 | 3.2 | 4.8 | 0.00 | 0.00 | 0.00 | 77 | 1011.8 |
| 20260507102207 | 2 | 235 | 3.2 | 4.8 | 0.00 | 0.00 | 0.00 | 77 | 1011.8 |
| 20260507101706 | 2 | 235 | 3.2 | 4.8 | 0.00 | 0.00 | 0.00 | 77 | 1011.8 |
| 20260507101207 | 2 | 238 | 1.6 | 4.8 | 0.00 | 0.00 | 0.00 | 77 | 1011.8 |
| 20260507100707 | 2 | 238 | 1.6 | 3.2 | 0.00 | 0.00 | 0.00 | 77 | 1011.8 |
| 20260507100207 | 2 | 238 | 1.6 | 3.2 | 0.00 | 0.00 | 0.00 | 76 | 1011.8 |
| 20260507095707 | 2 | 238 | 1.6 | 3.2 | 0.00 | 0.00 | 0.00 | 76 | 1011.8 |
| 20260507095428 | 2 | 238 | 1.6 | 3.2 | 0.00 | 0.00 | 0.00 | 75 | 1011.8 |
| 20260507094705 | 2 | 238 | 0.0 | 3.2 | 0.00 | 0.00 | 0.00 | 75 | 1011.9 |
| 20260507094205 | 2 | 238 | 0.0 | 3.2 | 0.00 | 0.00 | 0.00 | 75 | 1011.9 |
| 20260507094142 | 2 | 238 | 1.6 | 3.2 | 0.00 | 0.00 | 0.00 | 75 | 1011.9 |
| 20260507093158 | 2 | 238 | 1.6 | 3.2 | 0.00 | 0.00 | 0.00 | 74 | 1011.9 |
| 20260507092655 | 3 | 238 | 1.6 | 6.4 | 0.00 | 0.00 | 0.00 | 74 | 1011.9 |
| 20260507092154 | 3 | 238 | 1.6 | 6.4 | 0.00 | 0.00 | 0.00 | 74 | 1011.9 |
| 20260507091657 | 3 | 279 | 1.6 | 4.8 | 0.00 | 0.00 | 0.00 | 74 | 1011.9 |
| 20260507091415 | 3 | 279 | 1.6 | 3.2 | 0.00 | 0.00 | 0.00 | 74 | 1011.9 |
| 20260507090654 | 3 | 279 | 1.6 | 3.2 | 0.00 | 0.00 | 0.00 | 74 | 1011.9 |
| 20260507090155 | 3 | 279 | 0.0 | 1.6 | 0.00 | 0.00 | 0.00 | 74 | 1011.9 |
| 20260507085915 | 3 | 279 | 0.0 | 1.6 | 0.00 | 0.00 | 0.00 | 74 | 1011.9 |
| 20260507085153 | 3 | 279 | 0.0 | 0.0 | 0.00 | 0.00 | 0.00 | 73 | 1011.9 |
| 20260507084653 | 3 | 279 | 0.0 | 1.6 | 0.00 | 0.00 | 0.00 | 73 | 1011.9 |
| 20260507084150 | 3 | 279 | 0.0 | 3.2 | 0.00 | 0.00 | 0.00 | 73 | 1011.9 |
| 20260507083859 | 3 | 279 | 1.6 | 4.8 | 0.00 | 0.00 | 0.00 | 73 | 1011.9 |
| 20260507083140 | 3 | 279 | 1.6 | 4.8 | 0.00 | 0.00 | 0.00 | 73 | 1011.9 |
| 20260507082634 | 3 | 279 | 1.6 | 3.2 | 0.00 | 0.00 | 0.00 | 73 | 1011.9 |
| 20260507082123 | 3 | 279 | 0.0 | 3.2 | 0.00 | 0.00 | 0.00 | 73 | 1011.9 |
| 20260507081620 | 3 | 279 | 0.0 | 3.2 | 0.00 | 0.00 | 0.00 | 72 | 1011.9 |
| 20260507081115 | 3 | 279 | 0.0 | 0.0 | 0.00 | 0.00 | 0.00 | 72 | 1011.9 |
| 20260507080834 | 3 | 279 | 0.0 | 0.0 | 0.00 | 0.00 | 0.00 | 72 | 1011.9 |
| 20260507080317 | 3 | 279 | 0.0 | 0.0 | 0.00 | 0.00 | 0.00 | 72 | 1011.9 |
| 20260507075558 | 3 | 279 | 0.0 | 0.0 | 0.00 | 0.00 | 0.00 | 72 | 1011.9 |
| 20260507075313 | 3 | 279 | 0.0 | 0.0 | 0.00 | 0.00 | 0.00 | 72 | 1011.9 |
| 20260507075019 | 3 | 279 | 0.0 | 0.0 | 0.00 | 0.00 | 0.00 | 71 | 1011.8 |
| 20260507074040 | 3 | 279 | 0.0 | 1.6 | 0.00 | 0.00 | 0.00 | 71 | 1011.8 |
| 20260507073532 | 3 | 279 | 0.0 | 1.6 | 0.00 | 0.00 | 0.00 | 71 | 1011.8 |
| 20260507073026 | 3 | 279 | 0.0 | 1.6 | 0.00 | 0.00 | 0.00 | 71 | 1011.9 |
| 20260507072521 | 3 | 279 | 0.0 | 1.6 | 0.00 | 0.00 | 0.00 | 71 | 1011.9 |
| 20260507072232 | 3 | 279 | 0.0 | 3.2 | 0.00 | 0.00 | 0.00 | 71 | 1011.9 |
| 20260507071509 | 3 | 279 | 1.6 | 3.2 | 0.00 | 0.00 | 0.00 | 71 | 1011.9 |
| 20260507071003 | 3 | 279 | 1.6 | 3.2 | 0.00 | 0.00 | 0.00 | 71 | 1011.9 |
| 20260507070456 | 3 | 279 | 1.6 | 3.2 | 0.00 | 0.00 | 0.00 | 71 | 1011.9 |
| 20260507065951 | 3 | 279 | 1.6 | 3.2 | 0.00 | 0.00 | 0.00 | 71 | 1011.9 |
| 20260507065441 | 3 | 279 | 0.0 | 3.2 | 0.00 | 0.00 | 0.00 | 71 | 1011.9 |
| 20260507064939 | 3 | 279 | 0.0 | 3.2 | 0.00 | 0.00 | 0.00 | 71 | 1012.0 |
| 20260507064434 | 3 | 279 | 0.0 | 3.2 | 0.00 | 0.00 | 0.00 | 70 | 1012.0 |
| 20260507063926 | 3 | 279 | 0.0 | 3.2 | 0.00 | 0.00 | 0.00 | 71 | 1012.0 |
| 20260507063422 | 3 | 279 | 0.0 | 1.6 | 0.00 | 0.00 | 0.00 | 71 | 1012.1 |
| 20260507062909 | 3 | 279 | 0.0 | 1.6 | 0.00 | 0.00 | 0.00 | 70 | 1012.1 |
| 20260507062409 | 3 | 279 | 0.0 | 1.6 | 0.00 | 0.00 | 0.00 | 70 | 1012.1 |
| 20260507061907 | 4 | 279 | 0.0 | 0.0 | 0.00 | 0.00 | 0.00 | 70 | 1012.1 |
| 20260507061405 | 4 | 279 | 0.0 | 0.0 | 0.00 | 0.00 | 0.00 | 69 | 1012.1 |
| 20260507060904 | 4 | 279 | 0.0 | 0.0 | 0.00 | 0.00 | 0.00 | 68 | 1012.1 |
| 20260507060402 | 4 | 279 | 0.0 | 0.0 | 0.00 | 0.00 | 0.00 | 68 | 1012.2 |
| 20260507060126 | 4 | 279 | 0.0 | 0.0 | 0.00 | 0.00 | 0.00 | 68 | 1012.2 |
| 20260507055359 | 4 | 279 | 0.0 | 0.0 | 0.00 | 0.00 | 0.00 | 67 | 1012.2 |
| 20260507054857 | 4 | 279 | 0.0 | 0.0 | 0.00 | 0.00 | 0.00 | 66 | 1012.2 |
| 20260507054354 | 4 | 279 | 0.0 | 0.0 | 0.00 | 0.00 | 0.00 | 66 | 1012.2 |
| 20260507054118 | 5 | 279 | 0.0 | 1.6 | 0.00 | 0.00 | 0.00 | 66 | 1012.2 |
| 20260507053350 | 5 | 279 | 0.0 | 1.6 | 0.00 | 0.00 | 0.00 | 66 | 1012.3 |
| 20260507053111 | 5 | 279 | 0.0 | 1.6 | 0.00 | 0.00 | 0.00 | 66 | 1012.3 |
| 20260507052351 | 5 | 279 | 0.0 | 1.6 | 0.00 | 0.00 | 0.00 | 65 | 1012.3 |
| 20260507051849 | 5 | 279 | 0.0 | 3.2 | 0.00 | 0.00 | 0.00 | 65 | 1012.3 |
| 20260507051352 | 5 | 279 | 0.0 | 3.2 | 0.00 | 0.00 | 0.00 | 66 | 1012.3 |
| 20260507050854 | 5 | 281 | 0.0 | 1.6 | 0.00 | 0.00 | 0.00 | 65 | 1012.3 |
| 20260507050350 | 5 | 281 | 0.0 | 3.2 | 0.00 | 0.00 | 0.00 | 64 | 1012.3 |
| 20260507050330 | 5 | 281 | 0.0 | 3.2 | 0.00 | 0.00 | 0.00 | 64 | 1012.3 |
| 20260507045339 | 5 | 281 | 0.0 | 3.2 | 0.00 | 0.00 | 0.00 | 65 | 1012.3 |
| 20260507044833 | 5 | 281 | 0.0 | 3.2 | 0.00 | 0.00 | 0.00 | 64 | 1012.3 |
| 20260507044321 | 5 | 281 | 0.0 | 0.0 | 0.00 | 0.00 | 0.00 | 64 | 1012.3 |
| 20260507043822 | 5 | 281 | 0.0 | 0.0 | 0.00 | 0.00 | 0.00 | 64 | 1012.3 |
| 20260507043316 | 5 | 281 | 0.0 | 3.2 | 0.00 | 0.00 | 0.00 | 64 | 1012.1 |
| 20260507042808 | 5 | 281 | 0.0 | 3.2 | 0.00 | 0.00 | 0.00 | 63 | 1012.1 |
| 20260507042306 | 5 | 281 | 0.0 | 1.6 | 0.00 | 0.00 | 0.00 | 62 | 1012.1 |
| 20260507041754 | 5 | 281 | 0.0 | 3.2 | 0.00 | 0.00 | 0.00 | 62 | 1012.2 |
| 20260507041247 | 5 | 281 | 0.0 | 3.2 | 0.00 | 0.00 | 0.00 | 62 | 1012.2 |
| 20260507040736 | 6 | 281 | 0.0 | 0.0 | 0.00 | 0.00 | 0.00 | 62 | 1012.2 |
| 20260507040222 | 6 | 281 | 0.0 | 0.0 | 0.00 | 0.00 | 0.00 | 61 | 1012.2 |
| 20260507035944 | 6 | 281 | 0.0 | 0.0 | 0.00 | 0.00 | 0.00 | 61 | 1012.2 |
| 20260507035222 | 6 | 281 | 0.0 | 0.0 | 0.00 | 0.00 | 0.00 | 61 | 1012.2 |
| 20260507034723 | 6 | 281 | 0.0 | 0.0 | 0.00 | 0.00 | 0.00 | 60 | 1012.3 |
| 20260507034222 | 6 | 281 | 0.0 | 0.0 | 0.00 | 0.00 | 0.00 | 60 | 1012.3 |
| 20260507033722 | 6 | 281 | 0.0 | 0.0 | 0.00 | 0.00 | 0.00 | 59 | 1012.3 |
| 20260507033224 | 6 | 281 | 0.0 | 0.0 | 0.00 | 0.00 | 0.00 | 59 | 1012.3 |
| 20260507032725 | 6 | 281 | 0.0 | 0.0 | 0.00 | 0.00 | 0.00 | 58 | 1012.3 |
| 20260507032221 | 7 | 281 | 0.0 | 3.2 | 0.00 | 0.00 | 0.00 | 58 | 1012.3 |
| 20260507031720 | 7 | 281 | 0.0 | 3.2 | 0.00 | 0.00 | 0.00 | 57 | 1012.2 |
| 20260507031215 | 7 | 281 | 0.0 | 3.2 | 0.00 | 0.00 | 0.00 | 55 | 1012.2 |
| 20260507030708 | 7 | 281 | 0.0 | 3.2 | 0.00 | 0.00 | 0.00 | 55 | 1012.2 |
| 20260507030202 | 7 | 281 | 0.0 | 4.8 | 0.00 | 0.00 | 0.00 | 55 | 1012.1 |
| 20260507025653 | 7 | 281 | 1.6 | 4.8 | 0.00 | 0.00 | 0.00 | 54 | 1012.1 |
| 20260507025145 | 7 | 267 | 1.6 | 4.8 | 0.00 | 0.00 | 0.00 | 53 | 1012.1 |
| 20260507024645 | 7 | 263 | 1.6 | 4.8 | 0.00 | 0.00 | 0.00 | 53 | 1012.0 |
| 20260507024139 | 7 | 289 | 1.6 | 4.8 | 0.00 | 0.00 | 0.00 | 53 | 1012.0 |
| 20260507023631 | 8 | 288 | 3.2 | 8.0 | 0.00 | 0.00 | 0.00 | 53 | 1012.0 |
| 20260507023126 | 8 | 309 | 3.2 | 8.0 | 0.00 | 0.00 | 0.00 | 52 | 1011.9 |
| 20260507023109 | 8 | 281 | 3.2 | 8.0 | 0.00 | 0.00 | 0.00 | 51 | 1011.9 |
| 20260507022109 | 8 | 292 | 3.2 | 9.7 | 0.00 | 0.00 | 0.00 | 52 | 1011.9 |
| 20260507021831 | 8 | 317 | 3.2 | 9.7 | 0.00 | 0.00 | 0.00 | 52 | 1011.6 |
| 20260507021103 | 8 | 36 | 3.2 | 8.0 | 0.00 | 0.00 | 0.00 | 52 | 1011.6 |
| 20260507020558 | 8 | 277 | 3.2 | 8.0 | 0.00 | 0.00 | 0.00 | 51 | 1011.6 |
| 20260507020046 | 8 | 325 | 3.2 | 9.7 | 0.00 | 0.00 | 0.00 | 51 | 1011.4 |
| 20260507015541 | 8 | 263 | 3.2 | 9.7 | 0.00 | 0.00 | 0.00 | 51 | 1011.4 |
| 20260507015040 | 8 | 325 | 3.2 | 9.7 | 0.00 | 0.00 | 0.00 | 51 | 1011.4 |
| 20260507014532 | 8 | 286 | 3.2 | 9.7 | 0.00 | 0.00 | 0.00 | 49 | 1011.2 |
| 20260507014025 | 9 | 293 | 4.8 | 9.7 | 0.00 | 0.00 | 0.00 | 50 | 1011.2 |
| 20260507013522 | 9 | 343 | 4.8 | 11.3 | 0.00 | 0.00 | 0.00 | 49 | 1011.2 |
| 20260507013010 | 9 | 309 | 6.4 | 14.5 | 0.00 | 0.00 | 0.00 | 49 | 1011.2 |
| 20260507012509 | 9 | 292 | 6.4 | 16.1 | 0.00 | 0.00 | 0.00 | 48 | 1011.2 |
| 20260507011958 | 9 | 246 | 6.4 | 19.3 | 0.00 | 0.00 | 0.00 | 49 | 1011.2 |
| 20260507011455 | 10 | 272 | 6.4 | 19.3 | 0.00 | 0.00 | 0.00 | 49 | 1011.1 |
| 20260507010946 | 10 | 233 | 6.4 | 16.1 | 0.00 | 0.00 | 0.00 | 49 | 1011.1 |
| 20260507010444 | 10 | 291 | 4.8 | 16.1 | 0.00 | 0.00 | 0.00 | 48 | 1010.9 |
| 20260507005940 | 10 | 5 | 4.8 | 11.3 | 0.00 | 0.00 | 0.00 | 48 | 1010.9 |
| 20260507005428 | 10 | 324 | 3.2 | 11.3 | 0.00 | 0.00 | 0.00 | 48 | 1010.9 |
| 20260507004926 | 10 | 30 | 4.8 | 16.1 | 0.00 | 0.00 | 0.00 | 48 | 1010.9 |
| 20260507004637 | 10 | 341 | 8.0 | 20.9 | 0.00 | 0.00 | 0.00 | 47 | 1010.9 |
| 20260507003913 | 10 | 286 | 9.7 | 22.5 | 0.00 | 0.00 | 0.00 | 46 | 1010.9 |
| 20260507003408 | 11 | 342 | 8.0 | 22.5 | 0.00 | 0.00 | 0.00 | 45 | 1010.8 |
| 20260507002859 | 11 | 286 | 8.0 | 22.5 | 0.00 | 0.00 | 0.00 | 46 | 1010.8 |
| 20260507002356 | 11 | 217 | 9.7 | 25.7 | 0.00 | 0.00 | 0.00 | 45 | 1010.8 |
| 20260507002121 | 11 | 285 | 11.3 | 25.7 | 0.00 | 0.00 | 0.00 | 45 | 1010.5 |
| 20260507001601 | 11 | 327 | 9.7 | 22.5 | 0.00 | 0.00 | 0.00 | 45 | 1010.5 |
| 20260507000838 | 11 | 324 | 8.0 | 24.1 | 0.00 | 0.00 | 0.00 | 45 | 1010.5 |
| 20260507000330 | 11 | 309 | 8.0 | 24.1 | 0.00 | 0.00 | 0.00 | 45 | 1010.3 |
| 20260506235819 | 11 | 295 | 8.0 | 22.5 | 0.00 | 0.00 | 0.00 | 44 | 1010.3 |
| 20260506235310 | 11 | 314 | 9.7 | 22.5 | 0.00 | 0.00 | 0.00 | 45 | 1010.3 |
| 20260506234808 | 11 | 250 | 11.3 | 24.1 | 0.00 | 0.00 | 0.00 | 44 | 1010.2 |
| 20260506234309 | 11 | 241 | 9.7 | 24.1 | 0.00 | 0.00 | 0.00 | 44 | 1010.2 |
| 20260506233809 | 11 | 267 | 9.7 | 33.8 | 0.00 | 0.00 | 0.00 | 45 | 1010.2 |
| 20260506233529 | 11 | 250 | 9.7 | 33.8 | 0.00 | 0.00 | 0.00 | 43 | 1010.2 |
| 20260506232809 | 12 | 300 | 8.0 | 20.9 | 0.00 | 0.00 | 0.00 | 43 | 1010.2 |
| 20260506232308 | 12 | 292 | 8.0 | 19.3 | 0.00 | 0.00 | 0.00 | 43 | 1010.2 |
| 20260506231811 | 12 | 315 | 8.0 | 19.3 | 0.00 | 0.00 | 0.00 | 43 | 1010.1 |
| 20260506231313 | 12 | 308 | 9.7 | 22.5 | 0.00 | 0.00 | 0.00 | 43 | 1010.1 |
| 20260506230809 | 12 | 215 | 9.7 | 22.5 | 0.00 | 0.00 | 0.00 | 43 | 1010.1 |
| 20260506230258 | 12 | 269 | 6.4 | 19.3 | 0.00 | 0.00 | 0.00 | 42 | 1009.8 |
| 20260506225755 | 12 | 225 | 8.0 | 20.9 | 0.00 | 0.00 | 0.00 | 42 | 1009.8 |
| 20260506225249 | 12 | 292 | 8.0 | 20.9 | 0.00 | 0.00 | 0.00 | 42 | 1009.8 |
| 20260506224736 | 12 | 325 | 8.0 | 20.9 | 0.00 | 0.00 | 0.00 | 42 | 1009.9 |
| 20260506224235 | 12 | 214 | 8.0 | 19.3 | 0.00 | 0.00 | 0.00 | 42 | 1009.9 |
| 20260506223731 | 12 | 274 | 9.7 | 19.3 | 0.00 | 0.00 | 0.00 | 43 | 1009.9 |
| 20260506223225 | 12 | 246 | 11.3 | 25.7 | 0.00 | 0.00 | 0.00 | 42 | 1009.8 |
| 20260506222718 | 12 | 284 | 9.7 | 22.5 | 0.00 | 0.00 | 0.00 | 41 | 1009.8 |
| 20260506222212 | 13 | 250 | 9.7 | 22.5 | 0.00 | 0.00 | 0.00 | 43 | 1009.8 |
| 20260506221707 | 12 | 283 | 9.7 | 22.5 | 0.00 | 0.00 | 0.00 | 42 | 1009.8 |
| 20260506221429 | 12 | 298 | 8.0 | 19.3 | 0.00 | 0.00 | 0.00 | 42 | 1009.8 |
| 20260506220654 | 12 | 49 | 8.0 | 24.1 | 0.00 | 0.00 | 0.00 | 41 | 1009.8 |
| 20260506220149 | 12 | 233 | 9.7 | 24.1 | 0.00 | 0.00 | 0.00 | 41 | 1009.8 |
| 20260506215642 | 13 | 263 | 11.3 | 20.9 | 0.00 | 0.00 | 0.00 | 41 | 1009.8 |
| 20260506215136 | 13 | 267 | 12.9 | 24.1 | 0.00 | 0.00 | 0.00 | 41 | 1009.8 |
| 20260506214847 | 13 | 304 | 11.3 | 24.1 | 0.00 | 0.00 | 0.00 | 41 | 1009.7 |
| 20260506214123 | 13 | 228 | 9.7 | 20.9 | 0.00 | 0.00 | 0.00 | 41 | 1009.7 |
| 20260506213617 | 13 | 320 | 11.3 | 40.2 | 0.00 | 0.00 | 0.00 | 42 | 1009.7 |
| 20260506213111 | 13 | 269 | 14.5 | 40.2 | 0.00 | 0.00 | 0.00 | 40 | 1009.7 |
| 20260506212605 | 13 | 246 | 12.9 | 27.4 | 0.00 | 0.00 | 0.00 | 40 | 1009.7 |
| 20260506212059 | 13 | 247 | 12.9 | 25.7 | 0.00 | 0.00 | 0.00 | 39 | 1009.7 |
| 20260506211553 | 13 | 284 | 11.3 | 24.1 | 0.00 | 0.00 | 0.00 | 41 | 1009.7 |
| 20260506211043 | 13 | 290 | 11.3 | 27.4 | 0.00 | 0.00 | 0.00 | 40 | 1009.7 |
| 20260506210541 | 13 | 263 | 11.3 | 27.4 | 0.00 | 0.00 | 0.00 | 41 | 1009.7 |
| 20260506210040 | 13 | 267 | 11.3 | 25.7 | 0.00 | 0.00 | 0.00 | 41 | 1009.8 |
| 20260506205540 | 13 | 271 | 11.3 | 25.7 | 0.00 | 0.00 | 0.00 | 41 | 1009.8 |
| 20260506205040 | 13 | 237 | 9.7 | 24.1 | 0.00 | 0.00 | 0.00 | 40 | 1009.8 |
| 20260506204540 | 13 | 291 | 11.3 | 24.1 | 0.00 | 0.00 | 0.00 | 43 | 1009.8 |
| 20260506204310 | 13 | 289 | 11.3 | 22.5 | 0.00 | 0.00 | 0.00 | 42 | 1009.8 |
| 20260506203540 | 13 | 263 | 9.7 | 22.5 | 0.00 | 0.00 | 0.00 | 40 | 1009.8 |
| 20260506203041 | 13 | 238 | 9.7 | 22.5 | 0.00 | 0.00 | 0.00 | 41 | 1009.9 |
| 20260506202801 | 13 | 248 | 8.0 | 20.9 | 0.00 | 0.00 | 0.00 | 42 | 1009.9 |
| 20260506202043 | 12 | 221 | 8.0 | 22.5 | 0.00 | 0.00 | 0.00 | 44 | 1009.9 |
| 20260506201544 | 12 | 278 | 9.7 | 24.1 | 0.00 | 0.00 | 0.00 | 42 | 1010.2 |
| 20260506201040 | 12 | 244 | 9.7 | 24.1 | 0.00 | 0.00 | 0.00 | 44 | 1010.2 |
| 20260506200540 | 13 | 271 | 9.7 | 22.5 | 0.00 | 0.00 | 0.00 | 45 | 1010.2 |
| 20260506200040 | 12 | 259 | 9.7 | 22.5 | 0.00 | 0.00 | 0.00 | 44 | 1010.3 |
| 20260506195539 | 12 | 286 | 9.7 | 27.4 | 0.00 | 0.00 | 0.00 | 44 | 1010.3 |
| 20260506195039 | 12 | 219 | 9.7 | 27.4 | 0.00 | 0.00 | 0.00 | 44 | 1010.3 |
| 20260506194802 | 12 | 160 | 9.7 | 20.9 | 0.00 | 0.00 | 0.00 | 44 | 1010.3 |
| 20260506194022 | 12 | 311 | 9.7 | 20.9 | 0.00 | 0.00 | 0.00 | 45 | 1010.3 |
| 20260506193511 | 12 | 254 | 11.3 | 22.5 | 0.00 | 0.00 | 0.00 | 44 | 1010.3 |
| 20260506193012 | 12 | 227 | 11.3 | 30.6 | 0.00 | 0.00 | 0.00 | 45 | 1010.3 |
| 20260506192512 | 12 | 252 | 9.7 | 30.6 | 0.00 | 0.00 | 0.00 | 45 | 1010.3 |
| 20260506192012 | 12 | 264 | 8.0 | 17.7 | 0.00 | 0.00 | 0.00 | 48 | 1010.3 |
| 20260506191512 | 12 | 254 | 9.7 | 17.7 | 0.00 | 0.00 | 0.00 | 48 | 1010.5 |
| 20260506191011 | 12 | 217 | 9.7 | 22.5 | 0.00 | 0.00 | 0.00 | 49 | 1010.5 |
| 20260506190732 | 12 | 265 | 8.0 | 22.5 | 0.00 | 0.00 | 0.00 | 47 | 1010.5 |
| 20260506190016 | 12 | 315 | 9.7 | 22.5 | 0.00 | 0.00 | 0.00 | 48 | 1010.5 |
| 20260506185511 | 12 | 246 | 9.7 | 22.5 | 0.00 | 0.00 | 0.00 | 46 | 1010.5 |
| 20260506185500 | 12 | 235 | 6.4 | 16.1 | 0.00 | 0.00 | 0.00 | 48 | 1010.5 |
| 20260506184504 | 12 | 287 | 8.0 | 20.9 | 0.00 | 0.00 | 0.00 | 48 | 1010.3 |
| 20260506183958 | 12 | 227 | 9.7 | 20.9 | 0.00 | 0.00 | 0.00 | 46 | 1010.3 |
| 20260506183452 | 11 | 226 | 11.3 | 20.9 | 0.00 | 0.00 | 0.00 | 46 | 1010.3 |
| 20260506182941 | 12 | 234 | 9.7 | 20.9 | 0.00 | 0.00 | 0.00 | 46 | 1010.3 |
| 20260506182440 | 12 | 285 | 8.0 | 27.4 | 0.00 | 0.00 | 0.00 | 47 | 1010.3 |
| 20260506181934 | 12 | 266 | 8.0 | 27.4 | 0.00 | 0.00 | 0.00 | 47 | 1010.4 |
| 20260506181428 | 12 | 213 | 9.7 | 17.7 | 0.00 | 0.00 | 0.00 | 45 | 1010.4 |
| 20260506181141 | 12 | 236 | 8.0 | 17.7 | 0.00 | 0.00 | 0.00 | 44 | 1010.4 |
| 20260506180641 | 12 | 254 | 6.4 | 19.3 | 0.00 | 0.00 | 0.00 | 45 | 1010.5 |
| 20260506180353 | 12 | 333 | 6.4 | 19.3 | 0.00 | 0.00 | 0.00 | 43 | 1010.5 |
| 20260506175359 | 12 | 236 | 6.4 | 16.1 | 0.00 | 0.00 | 0.00 | 45 | 1010.5 |
| 20260506174858 | 12 | 273 | 8.0 | 19.3 | 0.00 | 0.00 | 0.00 | 43 | 1010.8 |
| 20260506174352 | 12 | 232 | 9.7 | 27.4 | 0.00 | 0.00 | 0.00 | 44 | 1010.8 |
| 20260506173846 | 12 | 263 | 9.7 | 27.4 | 0.00 | 0.00 | 0.00 | 44 | 1010.8 |
| 20260506173340 | 12 | 218 | 8.0 | 20.9 | 0.00 | 0.00 | 0.00 | 43 | 1010.8 |
| 20260506172829 | 12 | 282 | 8.0 | 19.3 | 0.00 | 0.00 | 0.00 | 43 | 1010.8 |
| 20260506172328 | 12 | 204 | 8.0 | 22.5 | 0.00 | 0.00 | 0.00 | 42 | 1010.8 |
| 20260506171823 | 12 | 286 | 8.0 | 22.5 | 0.00 | 0.00 | 0.00 | 41 | 1010.7 |
| 20260506171319 | 12 | 282 | 6.4 | 17.7 | 0.00 | 0.00 | 0.00 | 42 | 1010.7 |
| 20260506170811 | 12 | 258 | 6.4 | 16.1 | 0.00 | 0.00 | 0.00 | 45 | 1010.7 |
| 20260506170300 | 12 | 245 | 8.0 | 16.1 | 0.00 | 0.00 | 0.00 | 42 | 1010.4 |
| 20260506165759 | 12 | 236 | 8.0 | 24.1 | 0.00 | 0.00 | 0.00 | 42 | 1010.4 |
| 20260506165512 | 12 | 317 | 8.0 | 24.1 | 0.00 | 0.00 | 0.00 | 41 | 1010.4 |
| 20260506164745 | 12 | 300 | 8.0 | 16.1 | 0.00 | 0.00 | 0.00 | 43 | 1010.4 |
| 20260506164240 | 12 | 5 | 6.4 | 16.1 | 0.00 | 0.00 | 0.00 | 42 | 1010.4 |
| 20260506163729 | 12 | 338 | 6.4 | 16.1 | 0.00 | 0.00 | 0.00 | 43 | 1010.4 |
| 20260506163227 | 11 | 284 | 8.0 | 16.1 | 0.00 | 0.00 | 0.00 | 43 | 1010.3 |
| 20260506162950 | 12 | 205 | 8.0 | 16.1 | 0.00 | 0.00 | 0.00 | 42 | 1010.3 |
| 20260506162216 | 12 | 316 | 8.0 | 16.1 | 0.00 | 0.00 | 0.00 | 42 | 1010.3 |
| 20260506161710 | 12 | 338 | 8.0 | 16.1 | 0.00 | 0.00 | 0.00 | 44 | 1010.3 |
| 20260506161204 | 12 | 279 | 6.4 | 12.9 | 0.00 | 0.00 | 0.00 | 44 | 1010.3 |
| 20260506160659 | 11 | 241 | 6.4 | 14.5 | 0.00 | 0.00 | 0.00 | 44 | 1010.3 |
| 20260506160420 | 11 | 281 | 8.0 | 14.5 | 0.00 | 0.00 | 0.00 | 43 | 1010.3 |
| 20260506155917 | 11 | 261 | 6.4 | 14.5 | 0.00 | 0.00 | 0.00 | 44 | 1010.3 |
| 20260506155156 | 11 | 271 | 6.4 | 12.9 | 0.00 | 0.00 | 0.00 | 44 | 1010.3 |
| 20260506154657 | 11 | 11 | 6.4 | 12.9 | 0.00 | 0.00 | 0.00 | 45 | 1010.3 |
| 20260506154157 | 11 | 220 | 6.4 | 11.3 | 0.00 | 0.00 | 0.00 | 47 | 1010.3 |
| 20260506153657 | 11 | 209 | 4.8 | 12.9 | 0.00 | 0.00 | 0.00 | 47 | 1010.3 |
| 20260506153157 | 11 | 256 | 4.8 | 12.9 | 0.00 | 0.00 | 0.00 | 47 | 1010.3 |
| 20260506152921 | 11 | 263 | 4.8 | 11.3 | 0.00 | 0.00 | 0.00 | 47 | 1010.3 |
| 20260506152156 | 11 | 355 | 4.8 | 11.3 | 0.00 | 0.00 | 0.00 | 49 | 1010.3 |
| 20260506151656 | 11 | 265 | 4.8 | 12.9 | 0.00 | 0.00 | 0.00 | 48 | 1010.7 |
| 20260506151158 | 11 | 243 | 6.4 | 12.9 | 0.00 | 0.00 | 0.00 | 49 | 1010.7 |
| 20260506150652 | 11 | 243 | 4.8 | 12.9 | 0.00 | 0.00 | 0.00 | 48 | 1010.7 |
| 20260506150138 | 11 | 265 | 3.2 | 11.3 | 0.00 | 0.00 | 0.00 | 49 | 1010.5 |
| 20260506145627 | 11 | 238 | 3.2 | 8.0 | 0.00 | 0.00 | 0.00 | 49 | 1010.5 |
| 20260506145116 | 10 | 233 | 1.6 | 8.0 | 0.00 | 0.00 | 0.00 | 50 | 1010.5 |
| 20260506144602 | 10 | 161 | 1.6 | 8.0 | 0.00 | 0.00 | 0.00 | 52 | 1010.7 |
| 20260506144051 | 10 | 253 | 3.2 | 9.7 | 0.00 | 0.00 | 0.00 | 52 | 1010.7 |
| 20260506144038 | 11 | 234 | 3.2 | 9.7 | 0.00 | 0.00 | 0.00 | 51 | 1010.7 |
| 20260506143037 | 11 | 211 | 0.0 | 4.8 | 0.00 | 0.00 | 0.00 | 52 | 1010.7 |
| 20260506142531 | 10 | 114 | 0.0 | 3.2 | 0.00 | 0.00 | 0.00 | 51 | 1010.7 |
| 20260506142025 | 10 | 114 | 1.6 | 3.2 | 0.00 | 0.00 | 0.00 | 53 | 1010.7 |
| 20260506141515 | 10 | 114 | 1.6 | 3.2 | 0.00 | 0.00 | 0.00 | 52 | 1010.5 |
| 20260506141013 | 10 | 83 | 0.0 | 3.2 | 0.00 | 0.00 | 0.00 | 54 | 1010.5 |